Weather History for LEAS - March, 2013

Change the Weather History Date:

Wednesday, March 27, 2013

  Actual Average Record
Temperature  
Mean Temperature 50 °F -  
Max Temperature 51 °F 58 °F 73 °F (1998)
Min Temperature 48 °F 46 °F 40 °F (2014)
Degree Days  
Heating Degree Days 16    
Moisture  
Dew Point 48 °F    
Average Humidity 94    
Maximum Humidity 100    
Minimum Humidity 87    
Precipitation  
Precipitation 0.00 in - - ()
Sea Level Pressure  
Sea Level Pressure 29.58 in    
Wind  
Wind Speed 7 mph ()    
Max Wind Speed 12 mph    
Max Gust Speed -    
Visibility 1.7 miles    
Events Rain    
Averages and records for this station are not official NWS values.
T = Trace of Precipitation, MM = Missing Value Source: Averaged Metar Reports

Daily Weather History Graph

Daily Weather History Graph

Search for Another Location

Airport or City:

Trip Planner

Search our weather history database for the weather conditions in past years. The results will help you decide how hot, cold, wet, or windy it might be!

Date:

Astronomy

Mar. 27, 2013 Rise Set
Actual Time 7:14 AM CET 7:44 PM CET
Civil Twilight 6:46 AM CET 8:13 PM CET
Nautical Twilight 6:12 AM CET 8:47 PM CET
Astronomical Twilight 5:37 AM CET 9:22 PM CET
Moon 8:15 PM CET (3/27) 6:56 AM CET (3/27)
Length of Visible Light 13h 27m
Length of Day
12h 30m
Full, 100% of the Moon is Illuminated
Mar 27
Full
Apr 3
Last Quarter
Apr 10
New
Apr 18
First Quarter
Apr 25
Full

Hourly Weather History & Observations

Time (CET) Temp. Dew Point Humidity Pressure Visibility Wind Dir Wind Speed Gust Speed Precip Events Conditions
6:00 AM 50.0 °F 48.2 °F 94% 29.53 in 1.9 mi East 9.2 mph - N/A Rain Light Rain
6:30 AM 50.0 °F 48.2 °F 94% 29.53 in 1.6 mi East 9.2 mph - N/A Rain Light Rain
7:00 AM 50.0 °F 48.2 °F 94% 29.53 in 1.6 mi East 9.2 mph - N/A Rain Light Rain
7:15 AM 50.0 °F 48.2 °F 94% 29.53 in 0.7 mi East 9.2 mph - N/A Rain Light Rain
7:30 AM 50.0 °F 48.2 °F 94% 29.53 in 0.7 mi East 8.1 mph - N/A Rain Light Rain
8:00 AM 50.0 °F 48.2 °F 94% 29.53 in 0.7 mi ENE 5.8 mph - N/A Rain Light Rain
8:30 AM 50.0 °F 48.2 °F 94% 29.56 in 0.7 mi ENE 4.6 mph - N/A Rain Light Rain
9:00 AM 50.0 °F 48.2 °F 94% 29.56 in 0.7 mi ENE 5.8 mph - N/A Rain Light Rain
9:30 AM 50.0 °F 48.2 °F 94% 29.56 in 0.6 mi ENE 6.9 mph - N/A Rain Light Rain
9:33 AM 50.0 °F 48.2 °F 94% 29.56 in 0.4 mi ENE 5.8 mph - N/A Rain Light Rain
10:00 AM 50.0 °F 48.2 °F 94% 29.56 in 0.4 mi ENE 6.9 mph - N/A Rain Light Rain
10:30 AM 50.0 °F 48.2 °F 94% 29.56 in 0.6 mi East 6.9 mph - N/A Rain Light Rain
11:00 AM 50.0 °F 48.2 °F 94% 29.56 in 0.7 mi ENE 6.9 mph - N/A Rain Light Rain
11:30 AM 50.0 °F 48.2 °F 94% 29.56 in 0.7 mi East 4.6 mph - N/A Rain Light Rain
12:00 PM 50.0 °F 50.0 °F 100% 29.59 in 1.2 mi East 4.6 mph - N/A Rain Light Rain
12:30 PM 50.0 °F 50.0 °F 100% 29.59 in 1.6 mi ENE 4.6 mph - N/A Rain Light Rain
1:00 PM 50.0 °F 50.0 °F 100% 29.59 in 1.2 mi East 4.6 mph - N/A Rain Light Rain
1:30 PM 50.0 °F 50.0 °F 100% 29.59 in 1.6 mi East 6.9 mph - N/A Rain Light Rain
2:00 PM 50.0 °F 50.0 °F 100% 29.59 in 1.9 mi East 5.8 mph - N/A Rain Light Rain
2:30 PM 51.8 °F 50.0 °F 94% 29.59 in 1.9 mi East 4.6 mph - N/A Rain Light Rain
3:00 PM 51.8 °F 50.0 °F 94% 29.56 in 1.6 mi East 5.8 mph - N/A Rain Light Rain
3:30 PM 51.8 °F 50.0 °F 94% 29.56 in 1.6 mi East 4.6 mph - N/A Rain Light Rain
4:00 PM 51.8 °F 50.0 °F 94% 29.56 in 1.9 mi East 5.8 mph - N/A Rain Light Rain
4:30 PM 51.8 °F 50.0 °F 94% 29.56 in 1.9 mi ESE 6.9 mph - N/A Rain Light Rain
5:00 PM 51.8 °F 50.0 °F 94% 29.56 in 2.2 mi East 6.9 mph - N/A Rain Light Rain
5:30 PM 51.8 °F 50.0 °F 94% 29.56 in 2.2 mi East 9.2 mph - N/A Rain Light Rain
6:00 PM 51.8 °F 50.0 °F 94% 29.56 in 2.2 mi East 9.2 mph - N/A Rain Light Rain
6:30 PM 50.0 °F 50.0 °F 100% 29.59 in 2.5 mi East 11.5 mph - N/A   Overcast
7:00 PM 50.0 °F 48.2 °F 94% 29.59 in 2.5 mi East 9.2 mph - N/A   Mostly Cloudy
7:30 PM 50.0 °F 48.2 °F 94% 29.59 in 2.8 mi East 9.2 mph - N/A   Mostly Cloudy
8:00 PM 50.0 °F 48.2 °F 94% 29.62 in 2.8 mi East 9.2 mph - N/A   Overcast
8:04 PM 50.0 °F 46.4 °F 87% 29.62 in 2.8 mi East 11.5 mph - N/A Rain Rain
8:30 PM 50.0 °F 46.4 °F 87% 29.62 in 2.5 mi East 9.2 mph - N/A Rain Rain
9:00 PM 48.2 °F 46.4 °F 93% 29.62 in 2.5 mi East 9.2 mph - N/A Rain Rain Showers
9:30 PM 48.2 °F 46.4 °F 93% 29.62 in 2.5 mi East 10.4 mph - N/A Rain Rain Showers
10:00 PM 48.2 °F 46.4 °F 93% 29.65 in 2.5 mi East 11.5 mph - N/A Rain Rain Showers
10:30 PM 48.2 °F 46.4 °F 93% 29.65 in 2.8 mi East 10.4 mph - N/A Rain Rain Showers
11:00 PM 48.2 °F 46.4 °F 93% 29.65 in 2.8 mi East 10.4 mph - N/A Rain Light Rain
11:30 PM 48.2 °F 46.4 °F 93% 29.65 in 2.8 mi East 8.1 mph - N/A Rain Light Rain